Location: Barnston
(51.8500°N, 0.4000°E)
Time: 05:24:14
(UTC+00:00)

Cosmos 2082 Rocket - Pass Details

Date: 26 September 2023
Orbit: 834 x 852 km, 71.0° (Epoch: 29 November)

Event Time Altitude Azimuth Distance (km) Brightness Sun altitude
Exits shadow 04:25:13 16° 283° (WNW) 2,118 3.8 -13.8°
Maximum altitude 04:28:19 24° 324° (NW) 1,723 3.6 -13.3°
Drops below altitude 10° 04:32:51 10° 16° (NNE) 2,491 5.1 -12.7°
Sets 04:35:50 0° 31° (NNE) 3,428 6.1 -12.2°
